Miscellaneous Local Product
Issued by NWS North Platte, NE

Home | Current Version | Previous Version | Text Only | Print | Product List | Glossary On
Versions: 1 2 3 4 5 6 7 8 9 10 11 12 13 14 15 16 17 18 19 20 21 22 23 24 25 26 27 28 29 30 31 32 33 34 35 36 37 38 39 40 41 42 43 44 45 46 47 48 49 50
000
AXUS43 KLBF 222110
MISLBF


WESTERN AND NORTH CENTRAL NEBRASKA HOURLY WEATHER ROUNDUP
NATIONAL WEATHER SERVICE NORTH PLATTE NE
400 PM CDT MON SEP 22 2014

***STATIONS NOT REPORTING VARIABLES SUCH AS SKY/WEATHER OR
PRESSURE ARE PROVIDED BY THE NEBRASKA DEPARTMENT OF
ROADS...RAWS...AND APRS NETWORKS...AND ARE NOT UNDER
NATIONAL WEATHER SERVICE QUALITY CONTROL***

...OBSERVATIONS IN AND NEAR THE EASTERN PANHANDLE OF NEBRASKA...

CITY           SKY/WX    TMP DP  RH WIND       PRES   REMARKS
PINE RIDGE     CLOUDY    68  53  58 S21G31    30.02F
CHADRON        CLOUDY    74  55  51 S15       29.99F
ALLIANCE       PTSUNNY   73  55  53 S22G28    30.07F
SIDNEY         PTSUNNY   76  55  48 S16G30    30.10F
WHITECLAY        N/A     67  52  57 S18         N/A
RUSHVILLE        N/A     67  52  57 S26         N/A
CRESCENT LAKE    N/A     64  52  66 S13G23      N/A
LISCO            N/A     76  54  47 E16         N/A
BIG SPRINGS      N/A     59  55  88 SE8         N/A
$$

...OBSERVATIONS IN NORTH CENTRAL NEBRASKA...

CITY           SKY/WX    TMP DP  RH WIND       PRES   REMARKS
VALENTINE      CLOUDY    70  48  45 S21G30    30.09F
THEDFORD       CLOUDY    65  50  58 S16       30.17S
AINSWORTH      CLOUDY    69  47  46 S12G17    30.12F
O`NEILL        PTSUNNY   74  51  44 S16       30.16F
ORD            PTSUNNY   73  49  42 S12G20    30.16F
BROKEN BOW     CLOUDY    72  47  40 S16G25    30.17F
SPRINGVIEW       N/A     73  50  43 S8G16       N/A
ROSE             N/A     78  53  42 SE17        N/A
NEWPORT          N/A     73  49  41 S14         N/A
COMSTOCK         N/A     78  50  37 S12         N/A
CHAMBERS         N/A     74  49  40 S12         N/A
$$

...OBSERVATIONS IN SOUTHWEST NEBRASKA AND FAR NORTHEAST COLORADO...

CITY           SKY/WX    TMP DP  RH WIND       PRES   REMARKS
WRAY           MOCLDY    80  52  38 S17G26    30.10F
HOLYOKE        FAIR      73  55  53 S18G25    30.11F
IMPERIAL       CLOUDY    69  55  60 SE18      30.11F
OGALLALA       CLOUDY    63  58  83 E7        30.12F
NORTH PLATTE   LGT RAIN  61  53  75 SE7       30.16F
MCCOOK         CLOUDY    76  45  33 SE14      30.14F
LEXINGTON      CLOUDY    72  48  42 S15       30.18F
PAXTON           N/A     63  53  71 S3          N/A
SUTHERLAND       N/A     55  51  86 SE9         N/A
BRADY            N/A     64  53  67 CALM        N/A
GOTHENBURG       N/A     70  43  37 S9          N/A
CALLAWAY         N/A     68  50  52 S16         N/A
$$

...SOME WEATHER OBSERVATIONS FROM AROUND THE REGION...

CITY           SKY/WX    TMP DP  RH WIND       PRES   REMARKS
DENVER         PTSUNNY   77  52  41 N16       30.13S
LARAMIE        MOSUNNY   65  42  43 SW20      30.23F
CHEYENNE       MOSUNNY   72  43  35 VRB6      30.16F
SCOTTSBLUFF    HVY RAIN  63  58  83 W22G31    30.09R
RAPID CITY     PTSUNNY   76  48  37 S18       29.94F
PIERRE         PTSUNNY   82  46  28 SE28G36   29.98F
WINNER         PTSUNNY   77  45  32 S20G28    30.07F
SIOUX FALLS    PTSUNNY   73  47  39 S10       30.17F
OMAHA          MOSUNNY   73  48  41 S6        30.22F
GRAND ISLAND   MOSUNNY   73  49  42 S13       30.20F
KANSAS CITY    PTSUNNY   72  50  45 VRB5      30.25F
WICHITA        MOSUNNY   79  43  27 SE6       30.21F
HAYS           MOSUNNY   75  45  33 SE15      30.20F
LIBERAL        MOSUNNY   79  48  34 S18       30.20F
GOODLAND       CLOUDY    76  51  41 S28G36    30.14F
$$



USA.gov is the U.S. government's official web portal to all federal, state and local government web resources and services.